CAPE
0 0 0 0 0 0 0 0 0 0 14 0 4 215 147 82 116 191 719 559 399 413 51 118 311 943 1202 999 787 602 266 220 182 105 0 4 54 135 334 209 84 86 55 64 99 106 45 66 142
0 0 0 0 0 0 0 0 0 0 0 0 9 144 50 70 383 886 822 479 577 301 4 17 275 734 986 742 594 520 365 288 79 1 0 90 115 142 25 0 47 105 107 188 197 163 331 572 638
0 0 0 0 0 0 0 0 0 0 0 0 1 34 0 373 571 527 708 731 616 233 3 126 108 422 776 615 510 475 423 330 95 4 19 161 114 33 30 10 27 70 151 301 238 162 313 237 106
0 0 0 0 0 0 0 0 0 0 0 0 0 0 58 345 528 730 759 713 572 231 187 194 42 109 304 469 433 408 386 355 74 4 112 150 62 52 189 59 0 41 53 321 285 61 30 50 200
0 0 0 0 0 0 0 0 0 0 0 0 0 0 99 663 1141 876 628 595 296 287 400 157 6 0 0 23 145 234 268 151 0 0 104 163 118 110 210 90 1 31 11 13 53 0 0 19 30
0 0 0 0 0 0 0 0 0 0 0 0 0 43 856 1126 1350 746 522 360 274 324 391 399 188 0 0 0 0 0 0 0 0 5 44 95 69 76 161 152 76 109 37 4 0 0 0 0 0
0 0 0 0 0 0 0 0 0 0 0 0 0 149 1326 1441 1518 702 519 479 436 464 398 349 184 238 88 0 0 0 0 0 0 0 0 0 0 25 13 0 0 5 3 0 0 0 0 0 0
0 0 0 0 0 0 0 0 0 0 0 0 2 136 1165 1630 1644 1094 810 736 642 592 536 344 201 91 73 105 28 0 0 0 0 0 0 0 40 32 0 0 0 0 0 0 0 0 0 0 0
0 0 0 0 0 0 0 0 0 0 0 5 491 585 1618 1613 1581 1327 1080 952 785 684 589 368 288 188 118 92 152 31 0 0 0 0 12 7 2 158 98 0 0 0 0 0 0 0 0 0 0
0 0 0 0 0 0 0 0 0 0 0 0 542 1365 1638 1636 1612 1404 1024 1039 885 792 711 583 418 434 346 276 216 92 72 22 15 11 111 6 29 187 29 13 0 0 0 0 0 0 0 0 0
0 0 0 0 0 0 0 0 0 0 0 0 43 1178 1668 1767 1695 1633 1207 1261 1087 948 794 795 897 781 615 414 349 300 293 258 248 239 271 10 36 76 0 1 1 0 0 0 0 0 0 0 0
0 0 0 0 0 0 0 0 0 0 0 0 44 1072 1610 1794 1779 1615 1525 1464 1282 1087 927 1070 1273 1259 897 623 629 580 501 540 508 523 709 372 205 59 5 0 0 9 0 0 1 0 1 28 8
0 0 0 0 0 0 0 0 0 0 0 0 310 1108 1621 1954 2032 1814 1655 1597 1431 1339 1252 1293 1431 1513 1433 1229 938 749 764 739 629 642 718 450 260 121 47 30 12 0 0 0 0 5 267 409 284
0 0 0 0 0 0 0 0 0 0 0 0 230 536 928 1616 2019 2048 1933 1773 1531 1429 1421 1385 1491 1629 1639 1595 1234 1122 1077 884 911 818 711 676 475 368 115 52 18 1 0 0 0 36 600 691 773
0 0 0 0 0 0 0 0 0 0 0 0 107 302 416 988 1524 1982 2064 2032 1752 1546 1373 1440 1461 1590 1661 1644 1573 1387 1099 1071 1086 959 928 912 812 587 353 58 19 0 0 16 46 361 495 677 879
0 0 0 0 0 0 0 0 0 0 0 0 8 119 170 479 1024 1446 1863 2132 2039 1886 1769 1543 1319 1437 1643 1537 1470 1212 1051 1098 1093 1093 999 1060 998 798 708 147 28 0 7 21 299 532 614 638 614
0 0 0 0 0 0 0 0 0 0 0 0 0 0 0 75 309 582 886 1450 1857 1998 1989 1910 1691 1337 1451 1383 1408 1349 1259 1352 1141 1044 1055 1126 987 840 726 147 43 76 12 4 56 555 938 1173 1283
0 0 0 0 0 0 0 0 0 0 0 0 0 0 0 0 25 154 202 129 543 1394 1959 2063 1957 1722 1621 1457 1388 1088 855 708 529 636 678 781 636 705 527 108 64 111 13 8 23 233 673 1281 1366
0 0 0 0 0 0 0 0 0 0 0 0 0 0 0 0 0 0 44 71 57 347 1404 1880 2027 1880 1614 1326 1070 802 609 511 191 168 475 473 445 416 312 133 108 226 105 195 275 375 748 1028 1366
0 0 0 0 0 0 0 0 0 0 0 0 0 0 0 0 0 0 0 0 96 152 336 963 1710 1908 1881 1531 1349 1018 868 835 676 656 636 852 813 689 662 604 911 1058 1204 1450 1482 1580 1087 798 998
0 0 0 0 0 0 0 0 0 0 0 0 0 0 0 0 0 0 0 0 122 324 488 748 1292 1516 1768 1620 1632 1554 1379 1425 1610 1545 1436 1630 1579 1528 1351 1372 1487 1364 1610 1417 1557 1548 1283 177 455
0 0 0 0 0 0 0 0 0 0 0 0 0 0 0 0 0 0 0 0 1 106 493 731 944 1216 1643 1977 1637 1584 1356 1309 1384 1699 2142 2323 2428 2268 2256 2133 2088 2092 2179 1857 1055 1216 979 643 577
0 0 0 0 0 0 0 0 0 0 0 0 0 0 0 0 0 0 0 0 0 0 0 467 949 1252 1439 1721 1782 1595 1574 1154 1668 1844 1679 1600 1859 2037 1734 2101 2397 2232 2000 1817 2063 1717 1592 900 1129
0 0 0 0 0 0 0 0 0 0 0 0 0 0 0 0 0 0 0 0 0 0 0 189 931 1119 1405 1453 1679 1702 1548 1605 1546 1475 1425 1279 1379 1224 1086 1156 1718 2078 2040 2019 2071 2148 1698 1681 1063
0 0 0 0 0 0 0 0 0 0 0 0 0 0 0 0 0 0 0 0 0 0 0 7 667 821 955 979 1167 1403 1521 1459 1392 1322 893 682 448 248 257 489 615 600 729 865 1059 1261 1216 1268 1016
0 0 0 0 0 0 0 0 0 0 0 0 0 0 0 0 0 0 0 0 0 0 0 13 502 722 800 881 1110 1165 1195 921 635 256 104 41 6 0 0 0 1 1 14 118 346 466 551 569 549
0 0 0 0 0 0 0 0 0 0 0 0 0 0 0 0 0 0 0 0 0 0 3 124 554 535 499 429 359 275 196 92 27 1 0 0 0 0 0 0 0 0 0 0 0 0 12 89 276
0 0 0 0 0 0 0 0 0 0 0 0 0 0 0 0 5 25 88 127 85 252 336 267 201 141 63 41 25 12 3 0 0 0 0 0 0 0 0 0 0 0 0 0 0 0 0 0 0
0 0 0 0 0 0 0 0 0 0 0 0 170 168 125 7 5 3 7 47 83 34 35 15 9 1 0 0 0 0 0 0 0 0 0 0 0 0 0 0 0 0 0 0 0 0 0 0 0
0 0 0 0 0 0 0 0 0 0 0 222 34 7 6 5 9 10 10 20 26 8 0 0 0 0 0 0 0 0 0 0 0 0 0 0 0 0 0 0 0 0 0 0 0 0 0 0 0
CIN
-0 -0 -0 -0 -0 -0 -0 -0 -0 -0 -13 -0 -9 -75 -92 -97 -90 -52 -211 -235 -267 -295 -489 -454 -353 -165 -108 -126 -141 -161 -235 -236 -246 -321 -28 -135 -325 -254 -192 -199 -242 -271 -319 -314 -270 -255 -305 -271 -183
-0 -0 -0 -0 -0 -0 -0 -0 -0 -0 -0 -0 -67 -94 -84 -96 -132 -175 -203 -273 -255 -342 -130 -490 -367 -215 -149 -163 -171 -176 -198 -201 -327 -84 -0 -302 -258 -260 -326 -0 -280 -248 -277 -236 -199 -202 -142 -88 -87
-0 -0 -0 -0 -0 -0 -0 -0 -0 -0 -0 -0 -1 -95 -0 -107 -143 -167 -205 -250 -251 -362 -87 -434 -464 -319 -204 -208 -215 -197 -189 -205 -316 -387 -363 -248 -268 -329 -330 -277 -351 -283 -233 -194 -222 -215 -145 -153 -185
-0 -0 -0 -0 -0 -0 -0 -0 -0 -0 -0 -0 -0 -0 -200 -235 -146 -147 -241 -255 -281 -353 -375 -488 -542 -472 -363 -266 -256 -238 -230 -214 -311 -312 -275 -273 -294 -303 -251 -323 -6 -329 -295 -147 -162 -242 -247 -201 -161
-0 -0 -0 -0 -0 -0 -0 -0 -0 -0 -0 -0 -0 -0 -128 -170 -163 -204 -257 -246 -300 -298 -308 -453 -318 -0 -0 -381 -386 -319 -280 -310 -0 -0 -267 -252 -287 -283 -253 -318 -50 -339 -370 -343 -260 -0 -0 -254 -238
-0 -0 -0 -0 -0 -0 -0 -0 -0 -0 -0 -0 -0 -92 -109 -178 -150 -225 -246 -259 -270 -288 -329 -359 -452 -0 -0 -0 -0 -0 -0 -0 -0 -288 -350 -294 -317 -329 -278 -263 -309 -288 -313 -310 -0 -0 -0 -0 -0
-0 -0 -0 -0 -0 -0 -0 -0 -0 -0 -0 -0 -0 -77 -139 -133 -167 -222 -228 -228 -259 -264 -305 -364 -418 -419 -493 -0 -0 -0 -0 -0 -0 -0 -0 -0 -0 -363 -73 -0 -0 -80 -73 -0 -0 -0 -0 -0 -0
-0 -0 -0 -0 -0 -0 -0 -0 -0 -0 -0 -0 -10 -83 -89 -162 -160 -196 -198 -201 -223 -224 -263 -332 -399 -459 -464 -460 -549 -0 -0 -0 -0 -0 -0 -4 -389 -364 -0 -0 -0 -0 -0 -0 -0 -0 -0 -0 -0
-0 -0 -0 -0 -0 -0 -0 -0 -0 -0 -0 -34 -121 -140 -119 -173 -171 -175 -189 -187 -203 -218 -259 -299 -340 -386 -404 -424 -437 -541 -0 -0 -0 -0 -132 -127 -171 -258 -294 -0 -0 -0 -0 -0 -0 -0 -0 -0 -0
-0 -0 -0 -0 -0 -0 -0 -0 -0 -0 -0 -0 -87 -97 -131 -144 -146 -146 -207 -189 -206 -221 -247 -275 -296 -307 -308 -337 -396 -420 -421 -470 -484 -460 -333 -117 -195 -191 -270 -258 -0 -0 -0 -0 -0 -0 -0 -0 -0
-0 -0 -0 -0 -0 -0 -0 -0 -0 -0 -0 -0 -70 -84 -90 -85 -90 -96 -143 -125 -159 -187 -217 -225 -216 -249 -248 -289 -329 -314 -300 -314 -308 -295 -277 -305 -317 -266 -0 -12 -141 -0 -0 -0 -0 -0 -0 -0 -0
-0 -0 -0 -0 -0 -0 -0 -0 -0 -0 -0 -0 -133 -74 -59 -46 -49 -65 -73 -97 -123 -150 -178 -164 -148 -163 -205 -227 -241 -231 -235 -234 -230 -231 -181 -204 -258 -302 -335 -30 -0 -285 -0 -0 -93 -0 -23 -139 -13
-0 -0 -0 -0 -0 -0 -0 -0 -0 -0 -0 -0 -77 -64 -34 -28 -23 -30 -41 -51 -86 -125 -125 -118 -112 -114 -124 -155 -194 -212 -206 -205 -203 -198 -190 -207 -223 -255 -290 -297 -133 -0 -0 -0 -0 -211 -52 -33 -67
-0 -0 -0 -0 -0 -0 -0 -0 -0 -0 -0 -0 -74 -61 -44 -21 -13 -20 -23 -36 -60 -90 -109 -101 -98 -88 -93 -110 -160 -173 -176 -183 -167 -155 -167 -189 -178 -175 -237 -269 -289 -40 -0 -0 -0 -189 -11 -5 -1
-0 -0 -0 -0 -0 -0 -0 -0 -0 -0 -0 -0 -51 -67 -82 -43 -26 -10 -9 -14 -40 -68 -119 -114 -106 -93 -92 -97 -107 -127 -145 -127 -126 -127 -133 -142 -147 -151 -177 -247 -262 -64 -0 -244 -211 -95 -50 -16 -2
-0 -0 -0 -0 -0 -0 -0 -0 -0 -0 -0 -0 -49 -46 -99 -82 -57 -27 -10 -7 -21 -33 -64 -87 -114 -104 -88 -93 -91 -97 -106 -98 -127 -170 -237 -152 -90 -119 -135 -206 -249 -0 -229 -245 -84 -38 -26 -8 -4
-0 -0 -0 -0 -0 -0 -0 -0 -0 -0 -0 -0 -0 -0 -0 -108 -114 -110 -103 -51 -29 -26 -32 -49 -73 -92 -76 -70 -60 -71 -82 -73 -82 -124 -196 -134 -154 -128 -156 -190 -239 -236 -248 -158 -173 -52 -20 -6 -3
-0 -0 -0 -0 -0 -0 -0 -0 -0 -0 -0 -0 -0 -0 -0 -0 -48 -148 -178 -236 -189 -84 -35 -33 -51 -73 -65 -67 -81 -111 -158 -184 -178 -164 -163 -109 -178 -195 -252 -206 -224 -201 -238 -229 -193 -91 -25 -8 -1
-0 -0 -0 -0 -0 -0 -0 -0 -0 -0 -0 -0 -0 -0 -0 -0 -0 -0 -212 -242 -288 -227 -99 -60 -45 -60 -74 -99 -120 -170 -206 -213 -302 -235 -162 -119 -217 -220 -263 -214 -207 -152 -127 -89 -88 -84 -33 -8 -3
-0 -0 -0 -0 -0 -0 -0 -0 -0 -0 -0 -0 -0 -0 -0 -0 -0 -0 -0 -0 -254 -251 -239 -156 -67 -40 -39 -58 -67 -85 -101 -104 -109 -113 -94 -72 -137 -142 -162 -150 -62 -39 -18 -22 -15 -8 -23 -30 -15
-0 -0 -0 -0 -0 -0 -0 -0 -0 -0 -0 -0 -0 -0 -0 -0 -0 -0 -0 -0 -156 -167 -163 -168 -121 -87 -44 -37 -31 -37 -39 -30 -9 -8 -19 -40 -45 -71 -81 -68 -55 -43 -22 -12 -9 -9 -9 -42 -21
-0 -0 -0 -0 -0 -0 -0 -0 -0 -0 -0 -0 -0 -0 -0 -0 -0 -0 -0 -0 -7 -125 -121 -160 -150 -123 -58 -23 -17 -27 -31 -11 -2 -2 -2 -1 -1 -10 -19 -24 -15 -9 -2 -7 -18 -9 -14 -34 -15
-0 -0 -0 -0 -0 -0 -0 -0 -0 -0 -0 -0 -0 -0 -0 -0 -0 -0 -0 -0 -0 -0 -0 -126 -142 -110 -79 -45 -31 -15 -14 -7 -1 -0 -5 -3 -2 -2 -3 -3 -3 -5 -7 -13 -14 -12 -10 -16 -15
-0 -0 -0 -0 -0 -0 -0 -0 -0 -0 -0 -0 -0 -0 -0 -0 -0 -0 -0 -0 -0 -0 -0 -115 -126 -91 -71 -69 -43 -22 -9 -4 -3 -2 -2 -3 -1 -28 -66 -62 -30 -24 -26 -17 -2 -0 -0 -0 -3
-0 -0 -0 -0 -0 -0 -0 -0 -0 -0 -0 -0 -0 -0 -0 -0 -0 -0 -0 -0 -0 -0 -0 -60 -100 -120 -109 -110 -77 -44 -25 -19 -16 -11 -57 -38 -69 -107 -129 -84 -73 -84 -62 -42 -24 -12 -9 -2 -2
-0 -0 -0 -0 -0 -0 -0 -0 -0 -0 -0 -0 -0 -0 -0 -0 -0 -0 -0 -0 -0 -0 -0 -125 -79 -85 -79 -91 -77 -59 -38 -56 -96 -209 -269 -288 -176 -44 -0 -0 -35 -32 -310 -172 -67 -22 -29 -35 -40
-0 -0 -0 -0 -0 -0 -0 -0 -0 -0 -0 -0 -0 -0 -0 -0 -0 -0 -0 -0 -0 -0 -24 -49 -20 -90 -120 -120 -142 -167 -189 -239 -330 -137 -0 -0 -0 -0 -0 -0 -0 -0 -0 -0 -0 -0 -172 -126 -36
-0 -0 -0 -0 -0 -0 -0 -0 -0 -0 -0 -0 -0 -0 -0 -0 -136 -108 -186 -113 -140 -50 -48 -64 -86 -131 -203 -250 -318 -407 -255 -0 -0 -0 -0 -0 -0 -0 -0 -0 -0 -0 -0 -0 -0 -0 -0 -0 -0
-0 -0 -0 -0 -0 -0 -0 -0 -0 -0 -0 -0 -99 -144 -225 -134 -0 -0 -254 -221 -169 -154 -143 -157 -182 -32 -0 -0 -0 -0 -0 -0 -0 -0 -0 -0 -0 -0 -0 -0 -0 -0 -0 -0 -0 -0 -0 -0 -0
-0 -0 -0 -0 -0 -0 -0 -0 -0 -0 -0 -56 -219 -13 -1 -0 -291 -108 -154 -132 -99 -6 -0 -0 -0 -0 -0 -0 -0 -0 -0 -0 -0 -0 -0 -0 -0 -0 -0 -0 -0 -0 -0 -0 -0 -0 -0 -0 -0
Wind_Speed
29 26 24 22 26 25 31 24 20 17 15 15 16 16 15 16 17 14 11 9 12 13 15 13 6 4 7 9 10 11 12 15 15 17 19 22 24 25 25 24 24 24 24 25 25 25 24 24 24
26 24 23 23 30 30 28 20 19 16 17 19 15 15 15 14 14 10 7 1 15 14 15 13 8 8 9 10 11 12 12 13 12 13 17 20 21 22 23 23 23 23 22 23 23 22 22 21 21
25 25 29 27 37 36 26 18 15 15 17 16 14 17 16 13 12 6 7 7 10 14 17 16 15 13 12 11 12 12 12 12 11 12 15 17 17 19 21 20 21 21 20 20 20 20 19 19 19
21 25 30 37 39 33 28 18 16 17 15 15 16 16 13 13 13 9 12 11 10 14 17 21 20 17 15 12 13 13 12 10 9 10 13 13 15 18 17 18 19 19 18 18 17 17 17 16 16
23 27 37 41 45 32 28 21 19 19 19 20 18 14 14 13 11 6 12 13 11 10 13 18 19 20 16 12 11 12 13 11 9 10 9 10 13 15 15 16 16 16 16 15 15 14 14 13 13
24 30 37 48 39 36 27 24 21 22 21 20 18 17 14 12 6 6 11 11 9 11 12 11 13 17 12 11 14 14 14 13 12 11 11 10 11 12 12 12 13 13 14 13 13 12 12 11 11
29 31 42 40 40 38 31 24 25 23 24 22 21 18 13 9 4 5 8 7 9 11 13 13 16 13 8 8 9 12 14 14 13 12 10 9 9 9 9 10 11 11 11 11 11 11 10 10 9
27 34 44 44 39 41 29 30 27 25 23 19 21 19 13 9 2 2 5 7 8 13 11 12 12 12 10 9 9 10 12 13 12 10 8 7 7 7 7 8 9 9 9 10 10 10 10 9 8
24 35 45 44 39 35 29 32 27 22 24 19 19 19 13 8 6 4 5 8 9 9 9 11 10 11 10 8 7 6 8 8 7 7 7 6 5 5 6 7 8 8 9 8 9 9 9 8 7
27 37 36 35 34 37 28 31 29 28 25 22 18 15 14 11 11 8 7 9 11 12 9 8 9 8 9 7 7 5 4 4 4 5 5 6 4 4 6 7 8 9 9 9 9 9 9 8 7
31 44 34 33 31 28 27 29 24 30 28 25 24 19 15 15 14 13 10 7 8 10 9 8 7 7 7 5 6 4 2 2 3 4 3 3 3 3 2 5 6 7 7 8 7 8 8 10 13
37 38 34 27 32 33 31 31 32 30 28 22 21 18 17 17 16 16 15 11 9 8 9 10 10 7 6 4 3 2 1 1 1 2 3 3 2 3 3 6 8 9 9 10 11 11 12 12 12
37 30 31 30 27 34 30 32 33 35 30 25 19 18 19 19 18 17 16 14 12 11 10 8 8 8 7 8 6 5 5 3 3 3 1 2 3 4 7 9 9 10 10 11 12 13 14 15 14
32 36 31 29 31 30 34 34 31 30 25 26 22 19 19 19 19 17 16 16 15 12 10 8 8 7 8 9 8 9 8 6 6 6 5 3 7 9 11 11 12 13 13 13 15 15 16 17 17
28 35 31 32 30 32 30 36 36 29 24 24 24 20 18 17 17 18 17 17 16 16 13 13 9 7 8 10 10 11 9 9 9 10 11 8 6 8 11 13 13 14 13 13 15 16 16 18 21
36 33 38 30 31 28 29 41 31 26 25 26 24 23 20 17 16 16 16 17 17 17 16 16 14 11 11 11 11 12 12 11 10 10 11 12 13 11 11 14 15 16 15 11 12 13 13 14 18
35 38 38 32 29 27 31 35 28 29 26 27 25 22 22 19 18 15 15 15 15 15 16 16 14 14 13 13 12 11 11 12 16 14 19 9 5 8 14 16 18 14 9 7 11 13 13 13 16
38 40 35 33 30 31 31 30 24 29 30 28 27 24 22 22 20 18 17 16 17 19 17 16 15 14 14 15 15 15 16 13 16 19 14 8 9 13 14 17 19 11 7 6 8 10 15 18 21
33 37 35 33 24 31 30 32 23 26 31 30 28 27 23 21 19 19 20 18 17 17 18 19 17 17 16 16 17 17 18 18 18 14 11 9 11 13 12 16 17 12 12 9 10 12 16 21 20
36 34 34 28 25 28 32 32 32 26 28 30 29 29 26 25 23 21 22 21 20 19 18 19 21 21 19 19 19 20 21 19 17 13 13 12 12 13 13 14 15 14 15 15 15 15 17 18 18
36 34 31 30 24 25 24 32 32 26 26 27 28 26 28 29 28 25 23 22 21 20 18 17 18 19 21 22 20 20 20 20 19 19 16 15 12 13 15 18 18 17 16 18 18 19 19 22 20
35 29 30 27 28 30 27 31 33 31 28 28 29 29 28 27 26 25 23 22 20 21 19 19 19 20 19 19 22 22 23 23 21 20 18 15 15 16 18 19 18 17 19 20 21 20 20 21 27
29 25 24 25 28 26 30 31 23 27 33 32 31 31 30 27 26 26 26 24 22 20 21 20 19 18 17 16 17 18 20 18 16 18 20 19 18 21 21 19 20 22 22 22 23 23 23 24 27
21 23 24 22 24 35 29 30 22 25 26 27 25 25 27 27 27 26 26 23 21 22 17 19 19 17 15 15 15 17 16 15 16 18 17 17 17 20 21 21 23 26 27 28 28 27 28 29 29
28 26 28 31 34 33 24 29 20 16 16 17 18 22 22 21 23 24 24 26 25 23 24 21 18 17 16 15 16 15 16 17 18 19 21 20 20 20 22 22 24 27 28 28 29 30 31 31 30
38 33 31 36 35 26 18 27 20 13 14 14 16 19 21 19 18 19 21 22 23 23 22 19 18 16 15 15 15 16 15 16 17 19 19 19 20 21 22 24 26 27 29 29 30 30 32 31 31
36 38 20 26 24 24 24 15 15 12 13 14 18 22 21 18 19 21 18 19 20 20 17 15 13 13 12 12 11 11 12 13 14 16 17 19 20 22 25 26 27 27 29 29 31 31 32 33 32
40 30 23 23 27 25 22 20 15 14 13 15 15 11 7 4 6 8 9 9 8 8 9 8 9 9 7 8 9 10 12 12 14 15 16 20 22 24 25 26 27 29 30 32 33 33 33 34 33
32 38 27 20 22 20 20 15 9 9 12 11 7 5 3 3 5 6 7 8 7 6 5 5 6 5 6 6 8 10 12 14 15 16 19 22 23 25 27 29 30 31 32 33 34 35 34 35 35
33 31 25 22 21 17 16 14 9 10 9 4 2 2 4 5 7 9 10 11 11 12 12 11 10 9 8 8 9 12 15 17 18 20 23 26 27 27 30 31 34 34 35 35 36 37 36 37 38
Wind_Direction
265 270 274 274 262 262 252 259 267 265 268 279 272 270 282 278 275 278 301 265 95 106 111 113 117 103 97 106 105 99 95 92 88 89 93 99 100 102 101 101 103 101 99 99 101 102 99 94 91
263 268 269 268 255 252 253 259 257 266 275 274 280 278 284 289 297 337 18 325 104 107 111 110 110 98 98 106 103 99 96 92 87 85 92 97 96 95 99 99 107 106 101 100 103 105 101 97 91
261 260 258 259 250 248 255 256 252 266 272 274 284 281 285 296 313 4 4 99 110 109 112 111 109 102 98 102 102 101 98 94 87 88 93 95 89 93 95 94 102 105 103 103 103 103 103 99 91
257 256 256 250 245 248 255 260 260 261 268 272 283 284 294 306 278 301 91 109 121 115 113 116 114 108 102 99 102 102 100 95 88 90 94 91 89 93 86 87 95 100 100 103 99 98 100 99 90
252 253 249 248 244 250 252 264 260 259 264 265 275 285 287 296 301 59 105 114 124 125 115 119 116 114 107 101 99 100 102 99 94 93 90 86 87 89 85 85 86 90 93 96 95 93 95 95 89
247 248 249 243 246 247 253 253 258 260 265 264 270 276 285 297 314 94 111 121 133 124 123 121 117 114 107 104 104 104 104 103 101 99 96 90 88 84 78 71 71 79 81 84 83 87 87 80 80
245 245 247 250 246 245 246 251 252 259 261 260 265 268 281 283 324 99 118 135 132 126 124 124 121 116 112 105 100 100 104 106 106 104 101 94 84 71 64 61 64 69 68 74 74 74 70 70 67
248 251 248 247 246 244 245 249 251 257 259 272 263 262 266 271 305 159 142 146 139 129 132 130 128 124 119 111 105 100 100 104 105 105 101 90 75 63 50 48 49 52 56 65 72 65 58 58 53
251 248 246 244 245 245 246 246 247 259 259 266 268 265 270 270 254 207 174 143 149 148 146 140 138 132 125 115 110 100 100 96 91 94 98 93 78 62 41 18 25 30 29 38 41 37 36 39 48
239 245 248 249 248 246 248 246 243 250 254 257 263 267 265 261 246 228 192 160 155 155 166 170 148 147 134 126 124 115 99 89 91 92 98 105 79 41 353 355 360 0 3 12 19 16 21 26 30
243 246 250 251 250 249 247 244 247 247 250 255 255 255 258 254 248 242 229 202 193 165 171 184 180 173 158 150 135 121 94 69 86 91 80 88 26 12 28 4 358 355 5 9 22 16 18 13 3
248 246 252 250 247 245 247 249 247 248 250 260 258 253 254 254 249 244 242 234 220 188 189 169 164 189 202 225 216 252 280 9 22 80 94 22 29 355 349 338 336 336 344 349 349 353 355 356 355
244 249 247 251 249 246 247 248 249 249 253 256 254 253 253 254 253 250 247 245 237 229 226 206 186 190 219 251 260 272 279 282 303 314 83 73 355 337 324 319 321 324 330 337 338 343 343 347 347
248 246 248 248 247 247 244 247 248 250 250 249 249 251 254 254 253 252 248 243 242 238 233 229 222 213 235 252 259 272 277 283 289 297 301 293 312 313 310 311 312 313 317 324 327 332 334 336 341
253 240 247 243 244 246 247 245 243 247 248 245 244 247 252 256 255 254 252 248 247 250 248 247 241 229 238 255 263 273 277 282 288 296 297 302 311 315 312 308 308 311 316 321 322 324 327 328 327
236 243 239 239 238 240 240 243 243 240 242 242 243 245 250 254 257 260 260 257 256 257 253 254 258 255 254 261 270 276 280 281 289 293 296 293 296 305 311 309 308 309 311 321 323 327 333 332 330
229 238 237 238 236 240 238 244 242 238 241 239 242 247 249 252 256 260 262 263 264 263 260 260 260 264 262 268 275 277 284 288 293 306 292 304 283 298 305 305 305 310 309 311 318 320 326 330 330
228 233 234 235 233 235 236 243 249 240 239 240 243 248 251 251 254 257 261 267 268 265 267 268 262 264 267 270 273 280 284 290 294 303 307 294 295 295 302 297 302 307 301 296 308 315 321 320 324
238 233 238 234 241 230 238 238 250 242 238 239 242 247 248 253 257 260 261 265 269 272 268 265 267 267 267 269 274 278 284 287 290 294 279 279 292 294 292 297 300 300 302 301 308 312 314 316 321
242 231 231 232 239 231 237 240 245 247 241 239 242 245 249 255 259 261 263 265 266 271 274 271 269 268 269 272 277 285 288 291 294 290 283 283 293 297 295 295 300 303 304 304 304 307 312 315 317
231 231 226 226 228 239 235 242 242 244 243 244 244 247 253 255 258 261 263 265 268 270 274 276 276 276 273 271 278 285 291 293 294 293 288 290 290 295 294 295 298 304 302 303 306 307 308 314 319
225 229 227 229 222 234 232 245 242 238 241 245 248 251 255 256 255 260 263 268 270 274 278 281 282 283 282 276 277 280 287 290 293 294 292 294 293 299 298 299 302 307 307 305 307 308 307 309 311
223 225 222 225 227 235 234 247 243 237 242 246 249 253 255 257 258 261 264 268 274 278 282 285 286 288 287 287 283 286 289 295 298 298 296 299 303 301 298 304 304 303 306 306 306 305 303 304 306
216 217 222 224 226 235 235 239 246 241 241 248 250 252 256 259 261 263 266 269 273 277 289 288 288 289 291 292 290 289 293 297 303 307 308 311 307 304 308 310 307 304 304 305 306 306 305 305 305
210 202 214 219 227 236 230 236 268 242 242 250 252 257 260 262 264 266 267 269 273 276 279 292 286 288 291 291 292 293 293 294 300 303 299 304 306 310 316 315 313 311 312 311 309 309 308 307 305
207 207 212 219 222 225 225 239 247 234 258 259 265 268 269 270 270 271 274 274 273 275 282 288 286 286 292 294 296 298 298 301 305 308 309 309 311 315 315 314 315 317 318 319 318 315 313 312 311
207 213 235 225 224 227 229 233 249 240 253 264 273 277 275 272 273 279 285 287 282 281 290 289 290 292 299 300 305 310 313 315 317 315 313 314 316 316 312 313 313 319 321 321 320 317 317 316 316
209 206 218 224 219 223 225 228 228 230 256 274 280 288 295 314 315 313 320 323 320 310 308 307 302 306 311 315 315 316 318 324 323 329 324 321 320 320 318 318 321 320 320 321 320 318 318 318 317
203 212 225 234 232 226 217 217 196 235 270 277 285 293 318 336 3 11 11 16 20 17 13 9 3 343 341 343 335 331 329 323 321 323 322 324 324 320 320 320 319 320 322 321 320 318 317 317 316
211 208 221 223 226 236 218 233 238 264 280 281 302 354 44 59 63 63 63 61 59 57 56 52 44 36 23 15 1 343 329 326 323 319 321 319 319 322 326 326 317 320 320 320 319 316 316 315 314